Location: Cheching
(60.0667°N, 164.2167°W)
Time: 01:23:06
(UTC+00:00)

DX 1 - Pass Details

Date: 02 February 2021
Orbit: 618 x 631 km, 98.5° (Epoch: 07 March)

Event Time Altitude Azimuth Distance (km) Brightness Sun altitude
Exits shadow 07:46:44 25° 284° (WNW) 1,273 ? -33.4°
Drops below altitude 10° 07:49:25 10° 249° (WSW) 1,991 ? -33.7°
Sets 07:51:50 0° 237° (WSW) 2,893 ? -33.9°
